WetterOnline ( https://www.wetteronline.at )

Wetter aktuell Potsdam

Aktuelles Wetter: Potsdam (100m)

6-stündlich | Neueste Meldungen
Ortszeit Temperatur Wetter
Do, 13.08. 14:00 29.9° C wolkig
Do, 13.08. 8:00 20.5° C leicht bewölkt
Do, 13.08. 2:00 19.5° C wolkenlos
Mi, 12.08. 20:00 27.5° C leicht bewölkt
Mi, 12.08. 14:00 30.6° C fast wolkenlos
Mi, 12.08. 8:00 19.7° C wolkenlos
Mi, 12.08. 2:00 21.4° C wolkenlos
Di, 11.08. 20:00 29.1° C wolkenlos
Ortszeit Temperatur Wetter
Do, 13.08. 19:30 27.0° C bedeckt
Do, 13.08. 19:20 27.0° C bedeckt
Do, 13.08. 19:10 27.3° C bedeckt
Do, 13.08. 19:00 27.9° C bedeckt
Do, 13.08. 18:50 27.9° C bedeckt
Do, 13.08. 18:40 27.9° C bedeckt
Do, 13.08. 18:30 27.9° C wolkig
Do, 13.08. 18:00 27.8° C wolkig
Ortszeit Relative Feuchte Sichtweite
Do, 13.08. 14:00 36% 45 km
Do, 13.08. 8:00 49% 40 km
Do, 13.08. 2:00 53% 55 km
Mi, 12.08. 20:00 28% 65 km
Mi, 12.08. 14:00 24% 50 km
Mi, 12.08. 8:00 62% 50 km
Mi, 12.08. 2:00 58% 60 km
Di, 11.08. 20:00 34% 60 km
Ortszeit Relative Feuchte Sichtweite
Do, 13.08. 19:30 50% 50 km
Do, 13.08. 19:20 50% -
Do, 13.08. 19:10 50% -
Do, 13.08. 19:00 48% 45 km
Do, 13.08. 18:50 48% -
Do, 13.08. 18:40 45% -
Do, 13.08. 18:30 44% 50 km
Do, 13.08. 18:00 44% 40 km
Ortszeit Niederschlagsmenge Niederschlagsart
Do, 13.08. 14:00 0.0 l/m2 in 6 Std. -
Do, 13.08. 8:00 0.0 l/m2 in 12 Std. -
Do, 13.08. 2:00 0.0 l/m2 in 6 Std. -
Mi, 12.08. 20:00 0.0 l/m2 in 12 Std. -
Mi, 12.08. 14:00 0.0 l/m2 in 6 Std. -
Mi, 12.08. 8:00 0.0 l/m2 in 12 Std. -
Mi, 12.08. 2:00 0.0 l/m2 in 6 Std. -
Di, 11.08. 20:00 0.0 l/m2 in 12 Std. -
Ortszeit Niederschlagsmenge Niederschlagsart
Do, 13.08. 19:30 0.0 l/m2 in 1 Std. -
Do, 13.08. 19:20 keine Meldung -
Do, 13.08. 19:10 keine Meldung -
Do, 13.08. 19:00 0.1 l/m2 in 1 Std. Regen
Do, 13.08. 18:50 keine Meldung -
Do, 13.08. 18:40 keine Meldung -
Do, 13.08. 18:30 0.1 l/m2 in 1 Std. Schneeregen
Do, 13.08. 18:00 0.0 l/m2 in 1 Std. -
Ortszeit Stärke Spitze Richtung
km/h Bft. km/h Grad Sektor
Do, 13.08. 14:00 11 2 25 140° SO
Do, 13.08. 8:00 15 3 26 100° O
Do, 13.08. 2:00 14 3 22 100° O
Mi, 12.08. 20:00 13 3 33 70° O
Mi, 12.08. 14:00 14 3 36 80° O
Mi, 12.08. 8:00 18 3 29 100° O
Mi, 12.08. 2:00 14 3 32 80° O
Di, 11.08. 20:00 18 3 36 70° O
Ortszeit Stärke Spitze Richtung
km/h Bft. km/h Grad Sektor
Do, 13.08. 19:30 4 1 11 280° W
Do, 13.08. 19:20 4 1 - 280° W
Do, 13.08. 19:10 4 1 - 280° W
Do, 13.08. 19:00 4 1 11 290° W
Do, 13.08. 18:50 4 1 - 290° W
Do, 13.08. 18:40 4 1 - 320° NW
Do, 13.08. 18:30 0 0 11 - -
Do, 13.08. 18:00 6 1 9 120° SO
Ortszeit Untergrenze Bedeckung Gattung
total tief tief mittel hoch
Do, 13.08. 14:00 2400 m 6/8 3/8 Sc Ac -
Do, 13.08. 8:00 1800 m 5/8 1/8 Sc As Ci
Do, 13.08. 2:00 - 0/8 0/8 - - -
Mi, 12.08. 20:00 10500 m 5/8 0/8 - - -
Mi, 12.08. 14:00 9000 m 1/8 0/8 - - Ci
Mi, 12.08. 8:00 - 0/8 0/8 - - -
Mi, 12.08. 2:00 - 0/8 0/8 - - -
Di, 11.08. 20:00 - 0/8 0/8 - - -
Ortszeit Bedeckungsgrad in Achtel und Wolkenuntergrenze
Do, 13.08. 19:30 7(3600m) 8(4200m) 8(4800m)
Do, 13.08. 19:20 7(3600m) 8(4200m) 8(4800m)
Do, 13.08. 19:10 6(3600m) 8(4200m) 8(4800m)
Do, 13.08. 19:00 8(3900m) 8(4800m)
Do, 13.08. 18:50 8(3900m) 8(4800m)
Do, 13.08. 18:40 8(3600m) 8(4200m)
Do, 13.08. 18:30 2(2400m) 8(3300m) 8(4200m)
Do, 13.08. 18:00 1(2400m) 8(3300m) 8(3600m)
Ortszeit Luftdruck NN (hPa) Tendenz (hPa in 3 Std.)
Do, 13.08. 14:00 1014 - 0,5
Do, 13.08. 8:00 1015 - 0,6
Do, 13.08. 2:00 1017 - 0,4
Mi, 12.08. 20:00 1017 - 1,0
Mi, 12.08. 14:00 1019 - 0,7
Mi, 12.08. 8:00 1020 + 0,3
Mi, 12.08. 2:00 1020 + 0,3
Di, 11.08. 20:00 1018 - 0,1
Ortszeit Luftdruck NN (hPa) Tendenz (hPa in 3 Std.)
Do, 13.08. 19:30 1013 - 0,8
Do, 13.08. 19:20 1013 keine Meldung
Do, 13.08. 19:10 1013 keine Meldung
Do, 13.08. 19:00 1013 - 1,0
Do, 13.08. 18:50 1013 keine Meldung
Do, 13.08. 18:40 1013 keine Meldung
Do, 13.08. 18:30 1013 - 0,9
Do, 13.08. 18:00 1013 - 0,8
Ortszeit Schneehöhe (cm)
Do, 13.08. 14:00 0
Do, 13.08. 8:00 0
Do, 13.08. 2:00 -
Mi, 12.08. 20:00 -
Mi, 12.08. 14:00 0
Mi, 12.08. 8:00 0
Mi, 12.08. 2:00 -
Di, 11.08. 20:00 -
Ortszeit Schneehöhe (cm)
Do, 13.08. 19:30 -
Do, 13.08. 19:20 -
Do, 13.08. 19:10 -
Do, 13.08. 19:00 -
Do, 13.08. 18:50 -
Do, 13.08. 18:40 -
Do, 13.08. 18:30 -
Do, 13.08. 18:00 -
Link zu dieser Seite / Seite empfehlen

Das Wetter in ...